This demonstration page uses our WeatherBlox Daily Observations layout. Learn more.

Left ArrowRight Arrow

34.02893, -84.19858

Hourly Observations for April 26, 2019

Temp ( °F °C ) Dew Point ( °F °C ) Humidity (%) Winds ( mph kmh ) Pressure ( in mb ) Visibility ( mi km ) Precip ( " mm )
12:53 am 00:53 Mostly Cloudy 60 15.6 58 14.4 93 93 S 6 9 29.81 1009 10 16 0.00 0.03
1:53 am 01:53 Cloudy 60 15.6 57 13.9 90 90 S 7 11 29.78 1009 10 16 0.00 0.03
2:53 am 02:53 Mostly Cloudy 60 15.6 57 13.9 90 90 SSW 7 11 29.77 1008 10 16 0.00 0.00
3:53 am 03:53 Cloudy 59 15 56 13.3 90 90 S 6 9 29.75 1007 10 16 0.00 0.03
4:53 am 04:53 Cloudy 59 15 57 13.9 93 93 SSW 9 15 29.74 1007 10 16 0.01 0.25
5:04 am 05:04 Cloudy 59 15 57 13.9 93 93 SW 10 17 29.75 1008 7 11 0.00 0.00
5:14 am 05:14 Cloudy with Mist and Fog 58 14.4 57 13.9 97 97 SSW 8 13 29.75 1008 5 8 0.00 0.00
5:33 am 05:33 Cloudy 58 14.4 57 13.9 97 97 SW 9 15 29.76 1008 10 16 0.00 0.00
5:53 am 05:53 Cloudy 59 15 57 13.9 93 93 SW 8 13 29.74 1007 10 16 0.00 0.00
6:53 am 06:53 Cloudy 59 15 58 14.4 96 96 SSW 7 11 29.74 1007 10 16 0.00 0.00
7:53 am 07:53 Cloudy with Mist and Fog 59 15 58 14.4 96 96 WSW 9 15 29.75 1008 5 8 0.00 0.00
8:53 am 08:53 Cloudy 61 16.1 58 14.4 90 90 W 12 19 29.77 1008 10 16 0.00 0.00
9:00 am 09:00 Cloudy 61 16.1 57 13.9 87 87 W 12 19 29.78 1008 10 16 0.00 0.00
9:53 am 09:53 Cloudy 63 17.2 56 13.3 78 78 WNW 15 24 29.78 1009 10 16 0.00 0.00
10:20 am 10:20 Mostly Cloudy 65 18.3 55 12.8 70 70 WNW 15 24 29.78 1008 10 16 0.00 0.00
10:53 am 10:53 Mostly Cloudy 65 18.3 54 12.2 68 68 WNW 14 22 29.80 1009 10 16 0.00 0.00
11:53 am 11:53 Mostly Cloudy 68 20 51 10.6 55 55 W 15 24 29.81 1010 10 16 0.00 0.00
12:53 pm 12:53 Partly Cloudy 69 20.6 50 10 51 51 WNW 18 30 29.82 1010 10 16 0.00 0.00
1:53 pm 13:53 Mostly Sunny 70 21.1 44 6.7 39 39 NW 26 43 29.83 1010 10 16 0.00 0.00
3:53 pm 15:53 Sunny 72 22.2 38 3.3 29 29 NW 15 24 29.84 1011 10 16 0.00 0.00
4:53 pm 16:53 Sunny 72 22.2 37 2.8 28 28 NNW 16 26 29.84 1011 10 16 0.00 0.00
5:53 pm 17:53 Sunny 71 21.7 35 1.7 27 27 NW 14 22 29.85 1011 10 16 0.00 0.00
6:53 pm 18:53 Sunny 70 21.1 34 1.1 27 27 WNW 15 24 29.86 1011 10 16 0.00 0.00
7:53 pm 19:53 Sunny 68 20 33 0.6 27 27 NW 16 26 29.88 1012 10 16 0.00 0.00
8:53 pm 20:53 Clear 66 18.9 32 0 28 28 NW 9 15 29.90 1013 10 16 0.00 0.00
9:53 pm 21:53 Clear 63 17.2 34 1.1 34 34 WNW 9 15 29.93 1014 10 16 0.00 0.00
10:53 pm 22:53 Clear 59 15 37 2.8 44 44 W 6 9 29.96 1015 10 16 0.00 0.00
11:53 pm 23:53 Clear 58 14.4 37 2.8 46 46 WNW 6 9 29.97 1015 10 16 0.00 0.00

Powered by AerisWeather